ATLAS 5 CENTAUR DEB, 43958

Orbit data source: Space-Track

ATLAS 5 CENTAUR DEB, 43958 is space debris in HEO originally from a launch on Wed, 17 Sep 2014 UTC launched from the Air Force Eastern Test Range (AFETR). Debris objects in space refer to the collection of defunct objects orbiting the Earth. Examples of debris include non-operational satellites, rocket bodies, and fragments generated from explosions, collisions, or faulty payload assembly.

Loading next visibility...
Identifier
43958, 2014-055M
Orbit
HEO
Country
Flag of USUS
Related business
Flag of USUnited Launch Alliance/Lockheed Martin (US)
Manufacturer
Unknown
Mission
Spacecraft
Bus & Motor
Unknown
Mass
Unknown
Launch date (UTC)
2014-09-17 (11 years ago)
Launch vehicle
Unknown
Launch site
Air Force Eastern Test Range (AFETR)
Object type
Payload
Rocket body
Debris
Shape & HBR
Unknown shape, 1.1 m
Radar Cross Section
Small (<0.1 m²)

Expand to show TLE details & history
Last TLE update: 21 hours ago

TLE from 21 hours ago
0 ATLAS 5 CENTAUR DEB
1 43958U 14055M   26044.78660659 -.00000109  00000-0  00000+0 0  9997
2 43958  20.2022 147.1512 4719482 159.6007 228.2986  1.89325468 51563
Epoch: 2026-02-13T18:52Z
TLE epoch observation values (Epoch: 2026-02-13T18:52:42.809Z)
Latitude
0.00007°
Longitude
80.11242°
Altitude
32,118.252 km
Speed
2.504 km/s
True Right ascension
09h 48m 26s
True Declination
0° 00' 00"
Sunlit
Object was in daylight at epoch
Visualization orbit readout
Latitude
Unknown
Longitude
Unknown
Altitude
Unknown
Speed
Unknown
Apparent Right ascension
Unknown
Apparent Declination
Unknown
Sunlit
N/A
Visualization observer readout
Local Sidereal Time
18:59:43
Azimuth
Unknown
Elevation
Unknown
Doppler factor
Unknown
Orbital elements
Apogee altitude
34,252.35 km
Perigee altitude
8,197.785 km
Semi-major axis
27,603.204 km
Eccentricity
0.47195
Inclination
20.2022°
RAAN
147.1512°
Arg. of periapsis
159.6007°
True anomaly
200.38001°
Mean anomaly
228.2986°
Eccentric anomaly
213.4095°
Mean motion
0.47326 °/min
Orbital period
760.67 mins
BSTAR
0
Loading maneuver chart data...
Computing Atmospheric mass density...

Documentation

Showing up to 5 results
|